Tracking 23764 objects as of 18-Oct-2021
HD Live streaming from Space Station
objects crossing your sky now

OBJECT L

Track OBJECT L now!
10-day predictions


NORAD ID: 43841
Int'l Code: 2018-102L
Perigee: 529.8 km
Apogee: 550.2 km
Inclination: 97.5 °
Period: 95.3 minutes
Semi major axis: 6910 km
RCS: Unknown
Launch date: December 7, 2018
Source: (TBD)
Launch site: Jiuquan Satellite Launch Center, China (JSC)
aabbcc
Your satellite tracking list
Your tracking list is empty




NASA's NSSDC Master Catalog

Two Line Element Set (TLE):
1 43841U 18102L   21290.92276558  .00002553  00000-0  15600-3 0  9990
2 43841  97.5405   8.5232 0014781 305.7732 141.8638 15.11098340157781
Source of the keplerian elements: AFSPC